Location: Alta
(39.2070°N, 120.8111°W)
Time: 23:36:06
(UTC+00:00)

CZ-4B DEB - Visible Passes

Search period start: 06 December 2023 00:00
Search period end: 16 December 2023 00:00
Orbit: 838 x 858 km, 99.0° (Epoch: 06 December)

Date Brightness Start Highest point End Pass type
(mag) Time Alt. Az. Time Alt. Az. Time Alt. Az.
06 Dec 5.6 01:40:51 14° E 01:42:48 17° ENE 01:46:10 10° NNE visible
06 Dec 4.4 03:17:18 10° S 03:22:49 69° W 03:28:20 10° NNW visible
07 Dec 5.8 01:28:10 10° E 01:30:27 13° ENE 01:32:51 10° NNE visible
07 Dec 4.1 03:04:43 10° SSE 03:10:15 88° WSW 03:15:51 10° NNW visible
07 Dec 7.2 04:52:03 10° W 04:52:03 10° W 04:47:53 - WSW visible
08 Dec 4.0 02:52:15 10° SSE 02:57:45 72° ENE 03:03:17 10° N visible
08 Dec 6.9 04:39:21 14° W 04:39:21 14° W 04:41:40 10° WNW visible
09 Dec 4.2 02:39:52 10° SSE 02:45:15 56° ENE 02:50:40 10° N visible
09 Dec 6.6 04:22:25 10° SW 04:26:35 18° W 04:29:58 10° NW visible
10 Dec 4.5 02:27:35 10° SE 02:32:47 43° ENE 02:38:00 10° N visible
10 Dec 6.2 04:09:07 10° SSW 04:13:48 24° W 04:17:58 10° NW visible
11 Dec 4.8 02:15:26 10° SE 02:20:20 34° ENE 02:25:16 10° N visible
11 Dec 5.8 03:56:02 10° SSW 04:00:59 31° W 04:05:48 10° NW visible
11 Dec 7.1 14:39:17 10° ENE 14:42:18 15° E 14:45:17 10° SE visible
12 Dec 5.1 02:03:24 10° ESE 02:07:55 27° ENE 02:12:28 10° N visible
12 Dec 5.3 03:43:07 10° SSW 03:48:17 41° W 03:53:30 10° NNW visible
12 Dec 7.5 14:28:19 10° ENE 14:29:36 11° E 14:30:51 10° ESE visible
13 Dec 5.3 01:53:09 16° E 01:55:31 21° ENE 01:59:33 10° NNE visible
13 Dec 4.8 03:30:19 10° S 03:35:42 53° W 03:41:08 10° NNW visible
14 Dec 5.6 01:39:48 10° E 01:43:08 17° ENE 01:46:30 10° NNE visible
14 Dec 4.4 03:17:37 10° S 03:23:08 69° WSW 03:28:41 10° NNW visible
15 Dec 5.8 01:28:26 10° E 01:30:47 13° ENE 01:33:09 10° NNE visible
15 Dec 4.1 03:05:03 10° SSE 03:10:35 89° WSW 03:16:10 10° NNW visible
15 Dec 7.1 04:51:15 10° W 04:51:53 10° W 04:52:31 10° W visible
